Starlink 11143

operational
NORAD ID: 59953 Int'l Des: 2024-107 Owner: SPXS Country: US Constellation: starlink
LEOCIRCULAR

Über Starlink 11143

Beschreibung wird geladen...

Live-Position

3D-Globus wird geladen...

Nächste Überflüge

Höhenverlauf

Altitude vs Time

uPlot chart will show altitude changes over time

Zweizeiliger Elementsatz

1 59953U 24107J 25260.61433297 -.00001845 00000-0 -10370-4 0 9990
2 59953 53.1593 24.3793 0001151 89.4477 270.6673 15.69713688 74965
Epoch: 17. Sept. 2025 • Age: 29 hours

Aktueller Status

Höhe 378.3 km
Geschwindigkeit 7.68 km/s
Subsatellitenpunkt -51.48°S, 19.39°E
Startdatum 5. Juni 2024
Alter 1.2 years
Typ internet

Technische Details

Klassifizierung Payload
Masse 960.00 kg
Trockenmasse 910.00 kg
Gesamtmasse 960.00 kg
Länge 0.30 m
Durchmesser 4.10 m
Spannweite 29.00 m
Form Box + pan
Hersteller SPXS
Bus-Typ Starlink V2MD
Phasenstatus In Orbit
Besitzer/Staat SPXS/US

Große Konstellationen

Loading constellations...